ETH813 HAAB-HTZA

Flight info

Callsign ETH813
Flight time N/A
Altitude 41000
Route IMKIT3A IMKIT UT129 ALEMU/N0487F400 UN301 MOV UM310 UVUKO
Aircraft A359/H-SPCMNB2ABCDEFGHIJLMNOP/LB1D1

Departure

Time N/A
Airport Addis Ababa Bole International Airport (HAAB)

Arrival

Time 2026-05-06 11:46
Airport Abeid Amani Karume International Airport (HTZA)
Time Latitude Longitude Altitude Speed Heading
2026-05-06 10:11 5.33088 39.44168 40944 ft 485 kts 170°
2026-05-06 10:11 5.29755 39.44730 40944 ft 485 kts 170°
2026-05-06 10:12 5.23087 39.45855 40939 ft 485 kts 170°
2026-05-06 10:12 5.16455 39.46973 40933 ft 485 kts 170°
2026-05-06 10:13 5.09782 39.48097 40932 ft 485 kts 170°
2026-05-06 10:13 5.03112 39.49220 40927 ft 485 kts 170°
2026-05-06 10:14 4.96483 39.50336 40927 ft 485 kts 170°
2026-05-06 10:14 4.89815 39.51458 40921 ft 485 kts 171°
2026-05-06 10:15 4.83170 39.52576 40921 ft 485 kts 170°
2026-05-06 10:15 4.76500 39.53699 40914 ft 485 kts 170°
2026-05-06 10:16 4.69868 39.54814 40914 ft 485 kts 170°
2026-05-06 10:16 4.63204 39.55935 40914 ft 485 kts 170°
2026-05-06 10:17 4.56533 39.57057 40910 ft 485 kts 170°
2026-05-06 10:17 4.49912 39.58170 40913 ft 485 kts 170°
2026-05-06 10:18 4.43234 39.59293 40921 ft 485 kts 170°
2026-05-06 10:18 4.36548 39.60416 40918 ft 486 kts 170°
2026-05-06 10:19 4.29923 39.61529 40926 ft 485 kts 170°
2026-05-06 10:19 4.23255 39.62649 40924 ft 485 kts 170°
2026-05-06 10:20 4.16583 39.63770 40930 ft 485 kts 170°
2026-05-06 10:20 4.09947 39.64884 40932 ft 485 kts 171°
2026-05-06 10:21 4.03286 39.66003 40932 ft 485 kts 171°
2026-05-06 10:21 3.96628 39.67147 40938 ft 485 kts 170°
2026-05-06 10:22 3.89992 39.68412 40938 ft 484 kts 169°
2026-05-06 10:22 3.83412 39.69685 40945 ft 485 kts 169°
2026-05-06 10:23 3.76773 39.70954 40942 ft 485 kts 170°
2026-05-06 10:23 3.70146 39.72208 40944 ft 484 kts 170°
2026-05-06 10:24 3.63510 39.73461 40947 ft 484 kts 169°
2026-05-06 10:24 3.56920 39.74706 40946 ft 484 kts 170°
2026-05-06 10:25 3.50277 39.75961 40944 ft 484 kts 170°
2026-05-06 10:25 3.43666 39.77210 40944 ft 485 kts 170°
2026-05-06 10:26 3.37027 39.78464 40938 ft 484 kts 170°
2026-05-06 10:26 3.30429 39.79710 40939 ft 484 kts 169°
2026-05-06 10:27 3.23797 39.80962 40936 ft 485 kts 170°
2026-05-06 10:27 3.17203 39.82208 40935 ft 485 kts 170°
2026-05-06 10:28 3.10564 39.83460 40939 ft 485 kts 170°
2026-05-06 10:28 3.03916 39.84715 40931 ft 485 kts 170°
2026-05-06 10:29 2.97328 39.85959 40936 ft 484 kts 170°
2026-05-06 10:29 2.90687 39.87211 40932 ft 485 kts 169°
2026-05-06 10:30 2.84036 39.88466 40928 ft 485 kts 169°
2026-05-06 10:30 2.77437 39.89711 40931 ft 485 kts 170°
2026-05-06 10:31 2.70793 39.90965 40926 ft 485 kts 169°
2026-05-06 10:31 2.64193 39.92210 40925 ft 485 kts 170°
2026-05-06 10:32 2.57551 39.93463 40921 ft 485 kts 170°
2026-05-06 10:32 2.50887 39.94686 40922 ft 485 kts 170°
2026-05-06 10:33 2.44236 39.95857 40918 ft 485 kts 171°
2026-05-06 10:33 2.37620 39.97023 40917 ft 485 kts 171°
2026-05-06 10:34 2.30943 39.98209 40915 ft 485 kts 170°
2026-05-06 10:34 2.24338 39.99387 40915 ft 484 kts 171°
2026-05-06 10:35 2.17684 40.00574 40911 ft 485 kts 170°
2026-05-06 10:35 2.11036 40.01760 40908 ft 485 kts 170°
2026-05-06 10:36 2.04382 40.02946 40902 ft 485 kts 170°
2026-05-06 10:36 1.97771 40.04124 40894 ft 486 kts 170°
2026-05-06 10:37 1.91112 40.05311 40890 ft 486 kts 171°
2026-05-06 10:37 1.84446 40.06499 40884 ft 486 kts 171°
2026-05-06 10:38 1.77772 40.07678 40881 ft 486 kts 172°
2026-05-06 10:38 1.71069 40.07884 40884 ft 483 kts 184°
2026-05-06 10:39 1.64346 40.07369 40885 ft 484 kts 186°
2026-05-06 10:39 1.57683 40.06740 40885 ft 483 kts 186°
2026-05-06 10:40 1.50979 40.06108 40883 ft 483 kts 185°
2026-05-06 10:40 1.44269 40.05493 40885 ft 483 kts 185°
2026-05-06 10:41 1.37570 40.04887 40882 ft 482 kts 185°
2026-05-06 10:41 1.30920 40.04288 40879 ft 482 kts 185°
2026-05-06 10:42 1.24219 40.03683 40879 ft 482 kts 185°
2026-05-06 10:42 1.17580 40.03083 40880 ft 482 kts 185°
2026-05-06 10:43 1.10892 40.02480 40875 ft 481 kts 186°
2026-05-06 10:44 1.00890 40.01576 40872 ft 481 kts 186°
2026-05-06 10:44 0.94247 40.00979 40871 ft 481 kts 186°
2026-05-06 10:45 0.87567 40.00382 40871 ft 481 kts 186°
2026-05-06 10:45 0.80945 39.99788 40869 ft 480 kts 186°
2026-05-06 10:46 0.74288 39.99193 40867 ft 479 kts 186°
2026-05-06 10:46 0.67634 39.98597 40865 ft 479 kts 186°
2026-05-06 10:47 0.60986 39.98002 40865 ft 479 kts 186°
2026-05-06 10:47 0.54365 39.97410 40864 ft 480 kts 187°
2026-05-06 10:48 0.47701 39.96813 40860 ft 480 kts 186°
2026-05-06 10:48 0.41073 39.96221 40863 ft 480 kts 186°
2026-05-06 10:49 0.34409 39.95624 40862 ft 480 kts 186°
2026-05-06 10:49 0.27752 39.95029 40858 ft 480 kts 187°
2026-05-06 10:50 0.21117 39.94435 40861 ft 481 kts 187°
2026-05-06 10:50 0.14438 39.93838 40860 ft 481 kts 187°
2026-05-06 10:51 0.07756 39.93240 40861 ft 482 kts 187°
2026-05-06 10:51 0.01069 39.92642 40862 ft 481 kts 187°
2026-05-06 10:52 -0.05623 39.92043 40864 ft 483 kts 187°
2026-05-06 10:52 -0.12289 39.91446 40861 ft 483 kts 187°
2026-05-06 10:53 -0.19009 39.90846 40860 ft 483 kts 187°
2026-05-06 10:53 -0.25672 39.90250 40867 ft 483 kts 187°
2026-05-06 10:54 -0.32395 39.89649 40868 ft 483 kts 187°
2026-05-06 10:54 -0.39076 39.89154 40870 ft 484 kts 185°
2026-05-06 10:55 -0.45814 39.88745 40872 ft 484 kts 185°
2026-05-06 10:55 -0.51411 39.88400 40872 ft 484 kts 185°
2026-05-06 10:56 -0.58139 39.87968 40873 ft 484 kts 185°
2026-05-06 10:56 -0.64874 39.87526 40870 ft 485 kts 186°
2026-05-06 10:57 -0.71581 39.87085 40866 ft 485 kts 185°
2026-05-06 10:57 -0.78325 39.86643 40865 ft 485 kts 186°
2026-05-06 10:58 -0.85066 39.86201 40865 ft 485 kts 186°
2026-05-06 10:58 -0.91812 39.85759 40863 ft 485 kts 186°
2026-05-06 10:59 -0.98513 39.85319 40867 ft 486 kts 185°
2026-05-06 10:59 -1.05264 39.84877 40864 ft 486 kts 185°
2026-05-06 11:00 -1.12030 39.84433 40863 ft 486 kts 186°
2026-05-06 11:00 -1.18749 39.83993 40870 ft 486 kts 186°
2026-05-06 11:01 -1.25515 39.83549 40871 ft 486 kts 185°
2026-05-06 11:01 -1.32237 39.83108 40871 ft 486 kts 185°
2026-05-06 11:02 -1.39008 39.82664 40871 ft 486 kts 186°
2026-05-06 11:02 -1.45736 39.82222 40872 ft 486 kts 185°
2026-05-06 11:03 -1.52510 39.81777 40875 ft 487 kts 185°
2026-05-06 11:03 -1.59289 39.81333 40874 ft 488 kts 186°
2026-05-06 11:04 -1.66072 39.80887 40880 ft 488 kts 185°
2026-05-06 11:04 -1.72819 39.80446 40879 ft 488 kts 185°
2026-05-06 11:05 -1.79611 39.80000 40884 ft 488 kts 185°
2026-05-06 11:05 -1.86404 39.79536 40884 ft 489 kts 185°
2026-05-06 11:06 -1.93193 39.79055 40881 ft 489 kts 185°
2026-05-06 11:06 -1.99939 39.78580 40880 ft 489 kts 185°
2026-05-06 11:07 -2.06736 39.78106 40877 ft 489 kts 184°
2026-05-06 11:07 -2.13548 39.77631 40875 ft 490 kts 184°
2026-05-06 11:08 -2.20357 39.77158 40875 ft 491 kts 184°
2026-05-06 11:08 -2.27171 39.76683 40880 ft 490 kts 184°
2026-05-06 11:09 -2.33670 39.76231 40877 ft 490 kts 184°
2026-05-06 11:09 -2.40501 39.75754 40876 ft 491 kts 184°
2026-05-06 11:10 -2.47330 39.75279 40879 ft 491 kts 184°
2026-05-06 11:10 -2.54167 39.74803 40884 ft 492 kts 184°
2026-05-06 11:11 -2.60970 39.74330 40881 ft 492 kts 184°
2026-05-06 11:11 -2.67766 39.73845 40880 ft 492 kts 184°
2026-05-06 11:12 -2.74594 39.73325 40883 ft 492 kts 184°
2026-05-06 11:12 -2.81442 39.72802 40883 ft 492 kts 184°
2026-05-06 11:13 -2.88276 39.72285 40885 ft 492 kts 184°
2026-05-06 11:13 -2.95066 39.71775 40881 ft 492 kts 184°
2026-05-06 11:14 -3.01903 39.71262 40883 ft 492 kts 183°
2026-05-06 11:14 -3.08736 39.70749 40883 ft 492 kts 184°
2026-05-06 11:15 -3.15533 39.70239 40883 ft 492 kts 184°
2026-05-06 11:15 -3.22362 39.69726 40889 ft 492 kts 184°
2026-05-06 11:16 -3.29210 39.69211 40889 ft 492 kts 184°
2026-05-06 11:16 -3.36055 39.68696 40888 ft 492 kts 184°
2026-05-06 11:17 -3.42851 39.68186 40889 ft 492 kts 184°
2026-05-06 11:17 -3.49703 39.67671 40891 ft 492 kts 183°
2026-05-06 11:18 -3.56501 39.67160 40891 ft 493 kts 183°
2026-05-06 11:18 -3.63372 39.66644 40892 ft 493 kts 183°
2026-05-06 11:19 -3.70199 39.66130 40903 ft 494 kts 183°
2026-05-06 11:19 -3.77066 39.65613 40900 ft 494 kts 183°
2026-05-06 11:20 -3.83899 39.65099 40903 ft 494 kts 182°
2026-05-06 11:20 -3.90768 39.64583 40913 ft 495 kts 182°
2026-05-06 11:21 -3.97612 39.63735 40916 ft 496 kts 188°
2026-05-06 11:21 -4.04398 39.62509 40666 ft 492 kts 189°
2026-05-06 11:21 -4.07776 39.61870 40041 ft 492 kts 189°
2026-05-06 11:22 -4.11147 39.61229 39334 ft 494 kts 188°
2026-05-06 11:22 -4.14529 39.60587 38693 ft 494 kts 189°
2026-05-06 11:22 -4.17875 39.59952 37938 ft 496 kts 188°
2026-05-06 11:22 -4.21280 39.59310 37139 ft 498 kts 188°
2026-05-06 11:23 -4.24702 39.58666 36376 ft 499 kts 188°
2026-05-06 11:23 -4.28134 39.58020 35598 ft 501 kts 188°
2026-05-06 11:23 -4.31577 39.57372 34834 ft 504 kts 188°
2026-05-06 11:23 -4.34986 39.56732 34142 ft 504 kts 188°
2026-05-06 11:24 -4.38444 39.56081 33279 ft 507 kts 188°
2026-05-06 11:24 -4.41925 39.55426 32412 ft 509 kts 189°
2026-05-06 11:24 -4.45412 39.54770 31576 ft 510 kts 189°
2026-05-06 11:24 -4.48925 39.54108 30657 ft 514 kts 189°
2026-05-06 11:25 -4.52443 39.53446 29787 ft 515 kts 189°
2026-05-06 11:25 -4.55929 39.52790 28888 ft 515 kts 189°
2026-05-06 11:25 -4.59465 39.52122 28093 ft 513 kts 189°
2026-05-06 11:25 -4.62967 39.51462 27467 ft 507 kts 189°
2026-05-06 11:26 -4.66385 39.50817 26835 ft 502 kts 188°
2026-05-06 11:26 -4.69812 39.50171 26160 ft 498 kts 189°
2026-05-06 11:26 -4.73193 39.49467 25595 ft 494 kts 192°
2026-05-06 11:26 -4.76512 39.48621 24975 ft 490 kts 192°
2026-05-06 11:27 -4.79799 39.47768 24363 ft 486 kts 192°
2026-05-06 11:27 -4.83061 39.46934 23800 ft 480 kts 192°
2026-05-06 11:27 -4.86288 39.46117 23135 ft 476 kts 192°
2026-05-06 11:27 -4.89499 39.45311 22410 ft 473 kts 192°
2026-05-06 11:28 -4.92633 39.44529 21780 ft 467 kts 192°
2026-05-06 11:28 -4.95787 39.43741 21047 ft 465 kts 192°
2026-05-06 11:28 -4.98924 39.42960 20380 ft 461 kts 193°
2026-05-06 11:28 -5.02017 39.42190 19845 ft 454 kts 193°
2026-05-06 11:29 -5.05069 39.41429 19190 ft 450 kts 192°
2026-05-06 11:29 -5.08073 39.40682 18554 ft 447 kts 193°
2026-05-06 11:29 -5.11074 39.39935 17965 ft 442 kts 193°
2026-05-06 11:29 -5.14054 39.39193 17274 ft 437 kts 193°
2026-05-06 11:30 -5.16999 39.38460 16602 ft 433 kts 193°
2026-05-06 11:30 -5.19909 39.37735 16035 ft 426 kts 193°
2026-05-06 11:30 -5.22749 39.37028 15418 ft 422 kts 194°
2026-05-06 11:30 -5.25584 39.36322 14780 ft 418 kts 194°
2026-05-06 11:31 -5.28395 39.35622 14198 ft 413 kts 194°
2026-05-06 11:31 -5.31160 39.34933 13588 ft 407 kts 194°
2026-05-06 11:31 -5.33916 39.34247 12867 ft 405 kts 194°
2026-05-06 11:31 -5.36635 39.33569 12216 ft 400 kts 194°
2026-05-06 11:32 -5.39316 39.32901 11487 ft 389 kts 194°
2026-05-06 11:32 -5.41840 39.32271 10916 ft 367 kts 194°
2026-05-06 11:32 -5.44247 39.31672 10519 ft 347 kts 194°
2026-05-06 11:32 -5.46552 39.31097 10275 ft 335 kts 194°
2026-05-06 11:33 -5.48777 39.30542 10078 ft 323 kts 194°
2026-05-06 11:33 -5.50920 39.30008 9879 ft 311 kts 194°
2026-05-06 11:33 -5.52965 39.29498 9422 ft 297 kts 194°
2026-05-06 11:33 -5.54943 39.29004 8795 ft 289 kts 193°
2026-05-06 11:34 -5.56881 39.28521 8276 ft 286 kts 193°
2026-05-06 11:34 -5.58796 39.28043 7944 ft 280 kts 193°
2026-05-06 11:34 -5.60645 39.27582 7309 ft 275 kts 193°
2026-05-06 11:34 -5.62491 39.27121 6692 ft 271 kts 193°
2026-05-06 11:35 -5.64314 39.26667 6074 ft 270 kts 193°
2026-05-06 11:35 -5.66135 39.26213 5700 ft 267 kts 193°
2026-05-06 11:35 -5.67930 39.25765 5298 ft 265 kts 193°
2026-05-06 11:35 -5.69707 39.25322 4946 ft 261 kts 193°
2026-05-06 11:36 -5.71467 39.24883 4531 ft 260 kts 193°
2026-05-06 11:36 -5.73225 39.24444 4120 ft 259 kts 193°
2026-05-06 11:36 -5.74981 39.24007 3709 ft 259 kts 193°
2026-05-06 11:36 -5.76701 39.23577 3329 ft 257 kts 192°
2026-05-06 11:37 -5.78430 39.23146 2964 ft 255 kts 192°
2026-05-06 11:37 -5.80161 39.22714 2493 ft 257 kts 192°
2026-05-06 11:37 -5.81885 39.22284 2143 ft 253 kts 193°
2026-05-06 11:37 -5.83567 39.21862 1967 ft 243 kts 192°
2026-05-06 11:38 -5.85151 39.21466 1937 ft 226 kts 192°
2026-05-06 11:38 -5.86624 39.21098 1935 ft 209 kts 193°
2026-05-06 11:38 -5.88020 39.20749 1963 ft 204 kts 192°
2026-05-06 11:38 -5.89361 39.20416 1961 ft 200 kts 192°
2026-05-06 11:39 -5.90711 39.20078 1961 ft 200 kts 191°
2026-05-06 11:39 -5.92070 39.19747 1955 ft 200 kts 189°
2026-05-06 11:39 -5.93452 39.19621 1972 ft 199 kts 176°
2026-05-06 11:39 -5.94828 39.19724 1963 ft 197 kts 172°
2026-05-06 11:40 -5.96179 39.19870 1960 ft 195 kts 172°
2026-05-06 11:40 -5.97528 39.20018 1969 ft 198 kts 172°
2026-05-06 11:40 -5.98903 39.20157 1972 ft 199 kts 172°
2026-05-06 11:40 -6.00259 39.20292 1971 ft 197 kts 173°
2026-05-06 11:41 -6.01179 39.20384 1970 ft 196 kts 172°
2026-05-06 11:41 -6.02543 39.20521 1977 ft 197 kts 172°
2026-05-06 11:41 -6.03914 39.20659 1977 ft 197 kts 172°
2026-05-06 11:41 -6.05263 39.20793 1980 ft 198 kts 172°
2026-05-06 11:42 -6.06635 39.20931 1986 ft 198 kts 173°
2026-05-06 11:42 -6.08005 39.21068 1980 ft 196 kts 172°
2026-05-06 11:42 -6.09316 39.21199 1970 ft 180 kts 172°
2026-05-06 11:42 -6.10498 39.21316 1984 ft 160 kts 172°
2026-05-06 11:43 -6.11537 39.21419 1922 ft 144 kts 171°
2026-05-06 11:43 -6.12508 39.21518 1734 ft 136 kts 171°
2026-05-06 11:43 -6.13430 39.21611 1568 ft 131 kts 172°
2026-05-06 11:44 -6.15244 39.21792 1229 ft 131 kts 172°
2026-05-06 11:44 -6.16156 39.21892 1095 ft 132 kts 172°
2026-05-06 11:44 -6.17067 39.21991 955 ft 132 kts 174°
2026-05-06 11:44 -6.17977 39.22081 635 ft 131 kts 174°
2026-05-06 11:45 -6.18867 39.22178 439 ft 129 kts 177°
2026-05-06 11:45 -6.19788 39.22259 340 ft 135 kts 174°
2026-05-06 11:45 -6.20736 39.22356 173 ft 138 kts 177°
2026-05-06 11:45 -6.21667 39.22437 62 ft 127 kts 175°
2026-05-06 11:46 -6.22450 39.22513 55 ft 100 kts 174°
2026-05-06 11:46 -6.23049 39.22574 64 ft 73 kts 174°
2026-05-06 11:46 -6.23458 39.22616 57 ft 47 kts 174°
2026-05-06 11:46 -6.23738 39.22643 55 ft 40 kts 184°
2026-05-06 11:47 -6.23790 39.22493 56 ft 23 kts 318°
2026-05-06 11:47 -6.23636 39.22457 55 ft 24 kts 355°
2026-05-06 11:47 -6.23462 39.22443 55 ft 25 kts 354°
2026-05-06 11:47 -6.23284 39.22424 61 ft 26 kts 354°
2026-05-06 11:48 -6.23092 39.22406 59 ft 29 kts 355°
2026-05-06 11:48 -6.22885 39.22387 59 ft 30 kts 354°
2026-05-06 11:48 -6.22675 39.22368 56 ft 31 kts 355°
2026-05-06 11:48 -6.22516 39.22352 61 ft 15 kts 352°
2026-05-06 11:49 -6.22446 39.22323 56 ft 3 kts 308°
2026-05-06 11:49 -6.22440 39.22304 56 ft 3 kts 279°
2026-05-06 11:49 -6.22439 39.22281 58 ft 4 kts 270°
2026-05-06 11:49 -6.22439 39.22224 64 ft 12 kts 269°
2026-05-06 11:50 -6.22402 39.22185 56 ft 7 kts 359°
2026-05-06 11:50 -6.22353 39.22182 55 ft 5 kts 355°
2026-05-06 11:50 -6.22332 39.22181 56 ft 0 kts 354°
2026-05-06 11:51 -6.22331 39.22180 57 ft 0 kts 354°